Alva, OK

3:51 AM CDT on September 15, 2019 (GMT -0500)
Alva Regional

Weather History for KAVK - August, 2019

Change the Weather History Date:

Tuesday, August 20, 2019

  Actual Average Record
Temperature  
Mean Temperature 91 °F -  
Max Temperature 104 °F 95 °F 112 °F (1952)
Min Temperature 78 °F 69 °F 50 °F (1950)
Cooling Degree Days 26    
Growing Degree Days 41 (Base 50)    
Moisture  
Dew Point 66 °F    
Average Humidity 47    
Maximum Humidity 69    
Minimum Humidity 24    
Precipitation  
Precipitation 0.00 in - - ()
Sea Level Pressure  
Sea Level Pressure 29.96 in    
Wind  
Wind Speed 10 mph ()    
Max Wind Speed 16 mph    
Max Gust Speed 24 mph    
Visibility 10.0 miles    
Events      
Averages and records for this station are not official NWS values.
T = Trace of Precipitation, MM = Missing Value Source: Averaged Metar Reports

Daily Weather History Graph

Daily Weather History Graph

Search for Another Location

Airport or City:

Astronomy

Aug. 20, 2019 Rise Set
Actual Time 6:55 AM CDT 8:19 PM CDT
Civil Twilight 6:28 AM CDT 8:46 PM CDT
Nautical Twilight 5:56 AM CDT 9:19 PM CDT
Astronomical Twilight 5:21 AM CDT 9:53 PM CDT
Moon 11:16 PM CDT (8/20) 11:28 AM CDT (8/20)
Length of Visible Light 14h 18m
Length of Day
13h 23m
Waning Gibbous, 77% of the Moon is Illuminated
Aug 20
Waning Gibbous
Aug 23
Last Quarter
Aug 30
New
Sep 5
First Quarter
Sep 13
Full

Hourly Weather History & Observations

Time (CDT) Temp. Heat Index Dew Point Humidity Pressure Visibility Wind Dir Wind Speed Gust Speed Precip Events Conditions
12:15 AM 86.0 °F 90.4 °F 69.8 °F 58% 29.95 in 10.0 mi South 11.5 mph - N/A   Clear
12:35 AM 84.2 °F 88.4 °F 69.8 °F 62% 29.95 in 10.0 mi South 10.4 mph - N/A   Clear
12:55 AM 84.2 °F 87.3 °F 68.0 °F 58% 29.95 in 10.0 mi South 11.5 mph - N/A   Clear
1:15 AM 84.2 °F 87.3 °F 68.0 °F 58% 29.96 in 10.0 mi South 11.5 mph - N/A   Clear
1:35 AM 84.2 °F 87.3 °F 68.0 °F 58% 29.96 in 10.0 mi South 13.8 mph - N/A   Clear
1:55 AM 84.2 °F 87.3 °F 68.0 °F 58% 29.96 in 10.0 mi South 11.5 mph 17.3 mph N/A   Clear
2:15 AM 84.2 °F 87.3 °F 68.0 °F 58% 29.97 in 10.0 mi South 13.8 mph - N/A   Clear
2:35 AM 84.2 °F 87.3 °F 68.0 °F 58% 29.97 in 10.0 mi South 13.8 mph - N/A   Clear
2:55 AM 84.2 °F 87.3 °F 68.0 °F 58% 29.96 in 10.0 mi South 16.1 mph - N/A   Clear
3:15 AM 82.4 °F 86.3 °F 69.8 °F 66% 29.97 in 10.0 mi South 11.5 mph - N/A   Clear
3:35 AM 82.4 °F 85.4 °F 68.0 °F 62% 29.96 in 10.0 mi South 13.8 mph - N/A   Clear
3:55 AM 82.4 °F 85.4 °F 68.0 °F 62% 29.96 in 10.0 mi South 13.8 mph - N/A   Partly Cloudy
4:15 AM 84.2 °F 87.3 °F 68.0 °F 58% 29.96 in 10.0 mi SSW 12.7 mph 20.7 mph N/A   Clear
4:35 AM 82.4 °F 85.4 °F 68.0 °F 62% 29.97 in 10.0 mi SSW 9.2 mph - N/A   Clear
4:55 AM 82.4 °F 85.4 °F 68.0 °F 62% 29.96 in 10.0 mi SSW 9.2 mph - N/A   Clear
5:15 AM 80.6 °F 83.2 °F 68.0 °F 65% 29.97 in 10.0 mi South 9.2 mph - N/A   Clear
5:35 AM 80.6 °F 82.7 °F 66.2 °F 61% 29.98 in 10.0 mi SSW 11.5 mph - N/A   Partly Cloudy
5:55 AM 80.6 °F 83.2 °F 68.0 °F 65% 29.99 in 10.0 mi South 8.1 mph - N/A   Clear
6:15 AM 80.6 °F 82.7 °F 66.2 °F 61% 29.98 in 10.0 mi South 11.5 mph - N/A   Partly Cloudy
6:35 AM 80.6 °F 83.2 °F 68.0 °F 65% 29.98 in 10.0 mi SSW 10.4 mph - N/A   Clear
6:55 AM 78.8 °F - 68.0 °F 69% 29.99 in 10.0 mi South 9.2 mph - N/A   Clear
7:15 AM 78.8 °F - 68.0 °F 69% 29.99 in 10.0 mi South 9.2 mph - N/A   Clear
7:35 AM 78.8 °F - 68.0 °F 69% 29.99 in 10.0 mi South 8.1 mph - N/A   Clear
7:55 AM 80.6 °F 83.2 °F 68.0 °F 65% 29.99 in 10.0 mi South 11.5 mph - N/A   Clear
8:15 AM 82.4 °F 85.4 °F 68.0 °F 62% 29.99 in 10.0 mi South 10.4 mph - N/A   Clear
8:35 AM 84.2 °F 87.3 °F 68.0 °F 58% 29.99 in 10.0 mi South 11.5 mph - N/A   Clear
8:55 AM 86.0 °F 89.4 °F 68.0 °F 55% 29.99 in 10.0 mi South 12.7 mph - N/A   Clear
9:15 AM 87.8 °F 90.4 °F 66.2 °F 49% 29.99 in 10.0 mi SSW 12.7 mph - N/A   Clear
9:35 AM 89.6 °F 92.2 °F 66.2 °F 46% 30.00 in 10.0 mi SSW 11.5 mph - N/A   Clear
9:55 AM 89.6 °F 92.2 °F 66.2 °F 46% 29.99 in 10.0 mi SSW 13.8 mph - N/A   Clear
10:35 AM 91.4 °F 95.4 °F 68.0 °F 46% 30.00 in 10.0 mi South 11.5 mph - N/A   Clear
10:55 AM 93.2 °F 96.2 °F 66.2 °F 41% 30.01 in 10.0 mi SW 10.4 mph 16.1 mph N/A   Clear
11:15 AM 95.0 °F 98.5 °F 66.2 °F 39% 30.00 in 10.0 mi SSW 9.2 mph 16.1 mph N/A   Clear
11:35 AM 95.0 °F 99.5 °F 68.0 °F 41% 30.00 in 10.0 mi South 12.7 mph - N/A   Clear
11:55 AM 96.8 °F 100.7 °F 66.2 °F 37% 29.99 in 10.0 mi SSW 12.7 mph 19.6 mph N/A   Clear
12:15 PM 98.6 °F 104.1 °F 68.0 °F 37% 29.99 in 9.0 mi SSW 11.5 mph - N/A   Clear
12:35 PM 98.6 °F 104.1 °F 68.0 °F 37% 29.98 in 10.0 mi SSW 12.7 mph - N/A   Clear
12:50 PM 100.4 °F 104.9 °F 66.2 °F 33% 29.98 in 10.0 mi SSW 15.0 mph - N/A   Clear
1:15 PM 100.4 °F 104.9 °F 66.2 °F 33% 29.97 in 10.0 mi SW 15.0 mph 21.9 mph N/A   Clear
1:35 PM 100.4 °F 104.9 °F 66.2 °F 33% 29.97 in 10.0 mi SW 12.7 mph 19.6 mph N/A   Clear
1:55 PM 100.4 °F 103.6 °F 64.4 °F 31% 29.97 in 10.0 mi SW 13.8 mph 20.7 mph N/A   Clear
2:15 PM 102.2 °F 106.9 °F 66.2 °F 31% 29.96 in 10.0 mi SSW 16.1 mph 24.2 mph N/A   Clear
2:55 PM 104.0 °F 106.6 °F 62.6 °F 26% 29.95 in 10.0 mi SSW 13.8 mph - N/A   Clear
3:15 PM 104.0 °F 106.6 °F 62.6 °F 26% 29.94 in 10.0 mi SW 10.4 mph 17.3 mph N/A   Clear
3:35 PM 104.0 °F 106.6 °F 62.6 °F 26% 29.93 in 10.0 mi SSW 11.5 mph 21.9 mph N/A   Clear
3:55 PM 104.0 °F 105.3 °F 60.8 °F 24% 29.92 in 10.0 mi SSW 12.7 mph - N/A   Clear
4:15 PM 104.0 °F 107.4 °F 64.4 °F 27% 29.92 in 10.0 mi South 11.5 mph - N/A   Clear
4:35 PM 104.0 °F 105.3 °F 60.8 °F 24% 29.91 in 10.0 mi SW 10.4 mph 18.4 mph N/A   Clear
4:55 PM 102.2 °F 103.6 °F 60.8 °F 26% 29.91 in 10.0 mi South 12.7 mph 18.4 mph N/A   Clear
5:15 PM 102.2 °F 103.6 °F 60.8 °F 26% 29.90 in 10.0 mi South 9.2 mph 15.0 mph N/A   Clear
5:35 PM 100.4 °F 101.3 °F 60.8 °F 27% 29.91 in 10.0 mi SSW 12.7 mph - N/A   Clear
5:55 PM 98.6 °F 99.4 °F 60.8 °F 29% 29.91 in 10.0 mi SSW 11.5 mph - N/A   Clear
6:15 PM 96.8 °F 97.1 °F 60.8 °F 30% 29.91 in 10.0 mi SSW 10.4 mph - N/A   Clear
6:35 PM 96.8 °F 98.0 °F 62.6 °F 32% 29.91 in 10.0 mi SW 9.2 mph - N/A   Clear
6:55 PM 95.0 °F 96.0 °F 62.6 °F 34% 29.90 in 10.0 mi WSW 6.9 mph 13.8 mph N/A   Clear
7:15 PM 93.2 °F 94.1 °F 62.6 °F 36% 29.90 in 10.0 mi WNW 5.8 mph - N/A   Clear
7:35 PM 91.4 °F 93.2 °F 64.4 °F 41% 29.91 in 10.0 mi Variable 3.5 mph - N/A   Clear
7:55 PM 91.4 °F 93.2 °F 64.4 °F 41% 29.91 in 9.0 mi Calm Calm - N/A   Clear
8:15 PM 91.4 °F 94.0 °F 66.2 °F 43% 29.92 in 10.0 mi South 8.1 mph - N/A   Clear
8:35 PM 89.6 °F 92.2 °F 66.2 °F 46% 29.93 in 10.0 mi South 8.1 mph - N/A   Clear
8:55 PM 87.8 °F 90.4 °F 66.2 °F 49% 29.94 in 10.0 mi South 8.1 mph - N/A   Clear
9:15 PM 87.8 °F 90.4 °F 66.2 °F 49% 29.95 in 10.0 mi South 9.2 mph - N/A   Clear
9:35 PM 87.8 °F 90.4 °F 66.2 °F 49% 29.96 in 10.0 mi South 9.2 mph - N/A   Scattered Clouds
9:55 PM 86.0 °F 88.2 °F 66.2 °F 51% 29.96 in 10.0 mi South 8.1 mph - N/A   Mostly Cloudy
10:15 PM 86.0 °F 88.2 °F 66.2 °F 51% 29.97 in 10.0 mi South 8.1 mph - N/A   Mostly Cloudy
10:35 PM 86.0 °F 88.2 °F 66.2 °F 51% 29.97 in 10.0 mi South 9.2 mph - N/A   Mostly Cloudy
10:55 PM 84.2 °F 86.6 °F 66.2 °F 55% 29.97 in 10.0 mi SSE 9.2 mph - N/A   Partly Cloudy
11:15 PM 84.2 °F 86.6 °F 66.2 °F 55% 29.98 in 10.0 mi South 8.1 mph - N/A   Scattered Clouds
11:35 PM 84.2 °F 86.6 °F 66.2 °F 55% 29.98 in 10.0 mi South 10.4 mph - N/A   Clear
11:55 PM 86.0 °F 88.2 °F 66.2 °F 51% 29.98 in 10.0 mi North - - N/A   Clear